User: anonymous   Login
Location: Meriden
(44.0740°N, 93.3870°W)
Time: 06:58:52
(UTC-06:00)
Language:

AO-27 - Orbit

View from above orbital plane
View from above orbital plane
View from above satellite
View from above satellite

Ground track
Ground track

The orbit data is extracted from the following two-line orbital elements,

1 22825U 93061C   16037.11716111  .00000039  00000-0  32471-4 0  9997
2 22825  98.7421 352.6744 0008270 351.8794   8.2252 14.29935751166364
Epoch (UTC): 06 February 2016 02:48:42
Eccentricity: 0.0008270
inclination: 98.7421°
perigee height: 786 km
apogee height: 798 km
right ascension of ascending node: 352.6744°
argument of perigee: 351.8794°
revolutions per day: 14.29935751
mean anomaly at epoch: 8.2252°
orbit number at epoch: 16636

The dashed part of the orbit path shows where the satellite is in the earth's shadow,  

DLR